User: anonymous   Login
Location: Unspecified
(35.7250°N, 0.0000°E)
Time: 21:26:11
(UTC+00:00)
Language:

Transit 2A - Orbit

View from above orbital plane
View from above orbital plane
View from above satellite
View from above satellite

Ground track
Ground track

The orbit data is extracted from the following two-line orbital elements,

1    45U 60007A   19169.52376429 -.00000035  00000-0  18360-4 0  9997
2    45  66.6947 262.5450 0260821 222.4942 135.5710 14.33640908 70396
Epoch (UTC): 18 June 2019 12:34:13
Eccentricity: 0.0260821
inclination: 66.6947°
perigee height: 593 km
apogee height: 966 km
right ascension of ascending node: 262.5450°
argument of perigee: 222.4942°
revolutions per day: 14.33640908
mean anomaly at epoch: 135.5710°
orbit number at epoch: 7039

The dashed part of the orbit path shows where the satellite is in the earth's shadow,  

DLR